When you browse on this site, cookies collect data to enhance your experience and personalize the content and advertising you see.
Visit our Privacy Policy to learn more. By continuing to use the site, you agree to this use of cookies and data.
  • In Hungary
  • List of Countries
  • For 7 days
  • Water Temperature
  • Satellite Maps
  • Weather Map
  • News
  • Weather Widgets
  • user-avatar
    Login

    Hourly Weather Sunnyvale

    Today, 16 January, Wednesday

    Time Temperature Precipitation Wind Pressure Humidity
    00:00 +13°C° 0.2 mm 3 mps 756 mmHg 92%
    01:00 +13°C° 0.2 mm 3 mps 757 mmHg 91%
    02:00 +13°C° 0.3 mm 3 mps 757 mmHg 90%
    03:00 +13°C° 0.3 mm 4 mps 757 mmHg 89%
    04:00 +13°C° 0.3 mm 4 mps 758 mmHg 88%
    05:00 +13°C° 0.1 mm 4 mps 758 mmHg 86%
    06:00 +13°C° 0.1 mm 4 mps 758 mmHg 85%
    07:00 +12°C° 0.1 mm 4 mps 758 mmHg 83%
    08:00 +13°C° 0 mm 5 mps 758 mmHg 81%
    09:00 +13°C° 0 mm 5 mps 758 mmHg 80%
    10:00 +14°C° 0 mm 5 mps 758 mmHg 78%
    11:00 +14°C° 0.9 mm 5 mps 757 mmHg 79%
    12:00 +14°C° 0.9 mm 6 mps 757 mmHg 80%
    13:00 +14°C° 0.9 mm 6 mps 756 mmHg 81%
    14:00 +14°C° 1.9 mm 6 mps 756 mmHg 83%
    15:00 +14°C° 1.9 mm 7 mps 755 mmHg 85%
    16:00 +14°C° 1.9 mm 7 mps 755 mmHg 87%
    17:00 +15°C° 1.3 mm 7 mps 754 mmHg 87%
    18:00 +15°C° 1.3 mm 8 mps 754 mmHg 87%
    19:00 +15°C° 1.3 mm 8 mps 753 mmHg 87%
    20:00 +15°C° 2.9 mm 9 mps 753 mmHg 88%
    21:00 +15°C° 2.9 mm 9 mps 753 mmHg 90%
    22:00 +16°C° 2.9 mm 9 mps 753 mmHg 91%
    23:00 +15°C° 1.6 mm 7 mps 754 mmHg 88%

    Tomorrow, 17 January, Thursday

    Time Temperature Precipitation Wind Pressure Humidity
    00:00 +14°C° 1.6 mm 5 mps 754 mmHg 86%
    01:00 +14°C° 1.6 mm 3 mps 755 mmHg 84%
    02:00 +14°C° 0.3 mm 4 mps 755 mmHg 83%
    03:00 +14°C° 0.3 mm 4 mps 755 mmHg 83%
    04:00 +13°C° 0.3 mm 5 mps 755 mmHg 82%
    05:00 +13°C° 0.4 mm 5 mps 756 mmHg 81%
    06:00 +13°C° 0.4 mm 5 mps 756 mmHg 81%
    07:00 +13°C° 0.4 mm 6 mps 757 mmHg 80%
    08:00 +13°C° 1 mm 5 mps 757 mmHg 80%
    09:00 +13°C° 1 mm 5 mps 758 mmHg 80%
    10:00 +12°C° 1 mm 5 mps 759 mmHg 80%
    11:00 +13°C° 0.6 mm 5 mps 759 mmHg 78%
    12:00 +13°C° 0.6 mm 5 mps 760 mmHg 76%
    13:00 +13°C° 0.6 mm 4 mps 760 mmHg 74%
    14:00 +13°C° 0.1 mm 4 mps 760 mmHg 73%
    15:00 +13°C° 0.1 mm 4 mps 761 mmHg 72%
    16:00 +13°C° 0.1 mm 4 mps 761 mmHg 70%
    17:00 +12°C° 0 mm 3 mps 762 mmHg 74%
    18:00 +13°C° 0 mm 2 mps 763 mmHg 77%
    19:00 +12°C° 0 mm 1 mps 763 mmHg 81%
    20:00 +12°C° 0 mm 1 mps 764 mmHg 81%
    21:00 +11°C° 0 mm 1 mps 765 mmHg 82%
    22:00 +11°C° 0 mm 1 mps 765 mmHg 83%
    23:00 +11°C° 0 mm 1 mps 765 mmHg 83%

    Day after tomorrow, 18 January, Friday

    Time Temperature Precipitation Wind Pressure Humidity
    00:00 +11°C° 0 mm 1 mps 766 mmHg 84%
    01:00 +11°C° 0 mm 1 mps 766 mmHg 84%
    02:00 +11°C° 0 mm 1 mps 766 mmHg 84%
    03:00 +11°C° 0 mm 1 mps 766 mmHg 84%
    04:00 +11°C° 0 mm 1 mps 766 mmHg 83%
    05:00 +10°C° 0 mm 1 mps 766 mmHg 83%
    06:00 +10°C° 0 mm 1 mps 766 mmHg 83%
    07:00 +10°C° 0 mm 1 mps 767 mmHg 82%
    08:00 +12°C° 0 mm 1 mps 767 mmHg 77%
    09:00 +13°C° 0 mm 1 mps 767 mmHg 72%
    10:00 +15°C° 0 mm 1 mps 768 mmHg 66%
    11:00 +16°C° 0 mm 1 mps 767 mmHg 61%
    12:00 +18°C° 0 mm 1 mps 767 mmHg 56%
    13:00 +19°C° 0 mm 1 mps 767 mmHg 52%
    14:00 +18°C° 0 mm 1 mps 767 mmHg 56%
    15:00 +16°C° 0 mm 1 mps 767 mmHg 61%
    16:00 +15°C° 0 mm 1 mps 767 mmHg 65%
    17:00 +15°C° 0 mm 1 mps 767 mmHg 67%
    18:00 +14°C° 0 mm 1 mps 767 mmHg 69%
    19:00 +14°C° 0 mm 1 mps 768 mmHg 71%
    20:00 +14°C° 0 mm 1 mps 768 mmHg 72%
    21:00 +13°C° 0 mm 1 mps 768 mmHg 73%
    22:00 +12°C° 0 mm 0 mps 769 mmHg 75%
    23:00 +12°C° 0 mm 0 mps 769 mmHg 74%

    19 January, Saturday

    Time Temperature Precipitation Wind Pressure Humidity
    00:00 +13°C° 0 mm 1 mps 769 mmHg 74%
    01:00 +13°C° 0 mm 1 mps 768 mmHg 74%
    02:00 +13°C° 0 mm 1 mps 768 mmHg 74%
    03:00 +13°C° 0 mm 1 mps 768 mmHg 75%
    04:00 +12°C° 0 mm 1 mps 768 mmHg 76%
    05:00 +12°C° 0 mm 1 mps 768 mmHg 76%
    06:00 +12°C° 0 mm 1 mps 768 mmHg 77%
    07:00 +12°C° 0 mm 1 mps 768 mmHg 78%
    08:00 +14°C° 0 mm 1 mps 768 mmHg 73%
    09:00 +15°C° 0 mm 1 mps 769 mmHg 69%
    10:00 +18°C° 0 mm 1 mps 769 mmHg 64%
    11:00 +19°C° 0 mm 1 mps 768 mmHg 61%
    12:00 +21°C° 0 mm 1 mps 768 mmHg 58%
    13:00 +22°C° 0 mm 1 mps 767 mmHg 55%
    14:00 +22°C° 0 mm 1 mps 767 mmHg 58%
    15:00 +22°C° 0 mm 1 mps 767 mmHg 60%
    16:00 +21°C° 0 mm 1 mps 766 mmHg 62%
    17:00 +20°C° 0 mm 1 mps 766 mmHg 67%
    18:00 +18°C° 0 mm 1 mps 766 mmHg 71%
    19:00 +16°C° 0 mm 1 mps 766 mmHg 76%
    20:00 +16°C° 0 mm 1 mps 766 mmHg 76%
    21:00 +16°C° 0 mm 1 mps 766 mmHg 77%
    22:00 +14°C° 0 mm 0 mps 766 mmHg 77%
    23:00 +14°C° 0 mm 0 mps 766 mmHg 78%

    20 January, Sunday

    Time Temperature Precipitation Wind Pressure Humidity
    00:00 +14°C° 0 mm 0 mps 766 mmHg 78%
    01:00 +14°C° 0 mm 0 mps 765 mmHg 78%
    02:00 +14°C° 0 mm 0 mps 765 mmHg 79%
    03:00 +13°C° 0 mm 0 mps 765 mmHg 79%
    04:00 +14°C° 0 mm 1 mps 765 mmHg 79%
    05:00 +13°C° 0 mm 0 mps 765 mmHg 81%
    06:00 +13°C° 0 mm 0 mps 765 mmHg 82%
    07:00 +13°C° 0 mm 0 mps 765 mmHg 84%
    08:00 +14°C° 0 mm 0 mps 765 mmHg 82%
    09:00 +16°C° 0 mm 1 mps 765 mmHg 80%
    10:00 +18°C° 0 mm 1 mps 766 mmHg 78%
    11:00 +18°C° 0.1 mm 1 mps 765 mmHg 80%
    12:00 +17°C° 0.1 mm 2 mps 765 mmHg 83%
    13:00 +17°C° 0.1 mm 2 mps 765 mmHg 85%
    14:00 +16°C° 0.1 mm 2 mps 765 mmHg 84%
    15:00 +16°C° 0.1 mm 3 mps 764 mmHg 83%
    16:00 +14°C° 0.1 mm 3 mps 764 mmHg 81%
    17:00 +13°C° 0 mm 3 mps 765 mmHg 80%
    18:00 +12°C° 0 mm 3 mps 765 mmHg 79%
    19:00 +11°C° 0 mm 3 mps 766 mmHg 78%
    20:00 +11°C° 0 mm 3 mps 766 mmHg 78%
    21:00 +10°C° 0 mm 2 mps 767 mmHg 78%
    22:00 +10°C° 0 mm 2 mps 767 mmHg 78%
    23:00 +10°C° 0 mm 2 mps 767 mmHg 76%

    21 January, Monday

    Time Temperature Precipitation Wind Pressure Humidity
    00:00 +9°C° 0 mm 2 mps 767 mmHg 74%
    01:00 +9°C° 0 mm 2 mps 767 mmHg 72%
    02:00 +9°C° 0 mm 2 mps 767 mmHg 73%
    03:00 +8°C° 0 mm 2 mps 767 mmHg 74%
    04:00 +8°C° 0 mm 2 mps 767 mmHg 74%
    05:00 +8°C° 0 mm 2 mps 767 mmHg 72%
    06:00 +8°C° 0 mm 2 mps 767 mmHg 69%
    07:00 +8°C° 0 mm 2 mps 767 mmHg 66%
    08:00 +9°C° 0 mm 3 mps 767 mmHg 60%
    09:00 +10°C° 0 mm 3 mps 767 mmHg 54%
    10:00 +11°C° 0 mm 3 mps 767 mmHg 48%
    11:00 +13°C° 0 mm 3 mps 767 mmHg 44%
    12:00 +14°C° 0 mm 4 mps 767 mmHg 39%
    13:00 +15°C° 0 mm 4 mps 766 mmHg 35%
    14:00 +15°C° 0 mm 4 mps 766 mmHg 35%
    15:00 +16°C° 0 mm 3 mps 766 mmHg 34%
    16:00 +16°C° 0 mm 3 mps 766 mmHg 33%
    17:00 +14°C° 0 mm 3 mps 766 mmHg 36%
    18:00 +13°C° 0 mm 2 mps 766 mmHg 38%
    19:00 +12°C° 0 mm 1 mps 766 mmHg 41%
    20:00 +10°C° 0 mm 2 mps 766 mmHg 42%
    21:00 +10°C° 0 mm 2 mps 766 mmHg 42%
    22:00 +10°C° 0 mm 2 mps 766 mmHg 42%
    23:00 +10°C° 0 mm 2 mps 766 mmHg 45%
    Show more